Pellston, MI

2:44 AM EDT on September 20, 2017 (GMT -0400)
Pellston Regional Airport Of Emmet County

Weather History for KPLN - January, 2013

Change the Weather History Date:

Tuesday, January 22, 2013

  Actual Average Record
Temperature  
Mean Temperature 4 °F -  
Max Temperature 7 °F 30 °F 46 °F (2002)
Min Temperature 0 °F 9 °F -21 °F (1976)
Degree Days  
Heating Degree Days 62    
Moisture  
Dew Point -3 °F    
Average Humidity 81    
Maximum Humidity 92    
Minimum Humidity 66    
Precipitation  
Precipitation 0.02 in - - ()
Sea Level Pressure  
Sea Level Pressure 30.12 in    
Wind  
Wind Speed 8 mph (NNW)    
Max Wind Speed 14 mph    
Max Gust Speed 21 mph    
Visibility 3 miles    
Events Snow    
Averages and records for this station are not official NWS values.
T = Trace of Precipitation, MM = Missing Value Source: NWS Daily Summary

Daily Weather History Graph

Daily Weather History Graph

Search for Another Location

Airport or City:

Trip Planner

Search our weather history database for the weather conditions in past years. The results will help you decide how hot, cold, wet, or windy it might be!

Date:

Astronomy

Jan. 22, 2013 Rise Set
Actual Time 8:10 AM EST 5:31 PM EST
Civil Twilight 7:37 AM EST 6:04 PM EST
Nautical Twilight 7:01 AM EST 6:40 PM EST
Astronomical Twilight 6:26 AM EST 7:15 PM EST
Moon 1:51 PM EST (1/22) 4:33 AM EST (1/22)
Length of Visible Light 10h 26m
Length of Day
9h 21m
Waxing Gibbous, 82% of the Moon is Illuminated
Jan 22
Waxing Gibbous
Jan 26
Full
Feb 3
Last Quarter
Feb 10
New
Feb 17
First Quarter

Hourly Weather History & Observations

Time (EST) Temp. Windchill Dew Point Humidity Pressure Visibility Wind Dir Wind Speed Gust Speed Precip Events Conditions
12:02 AM 1.4 °F -16.1 °F -2.2 °F 85% 30.00 in 1.0 mi WNW 12.7 mph - 0.00 in Snow Light Snow
12:09 AM 1.4 °F -15.3 °F -2.2 °F 85% 30.00 in 0.8 mi West 11.5 mph - 0.00 in Snow Light Snow
12:23 AM 1.4 °F -15.3 °F -2.2 °F 85% 30.00 in 0.8 mi West 11.5 mph - 0.00 in Snow Light Snow
12:25 AM 1.4 °F -15.3 °F -2.2 °F 85% 30.00 in 1.0 mi West 11.5 mph - 0.00 in Snow Light Snow
12:54 AM 1.9 °F -13.8 °F -2.9 °F 80% 30.06 in 1.0 mi West 10.4 mph - 0.00 in Snow Light Snow
1:33 AM 1.4 °F -15.3 °F -2.2 °F 85% 29.99 in 1.5 mi WNW 11.5 mph - 0.00 in Snow Light Snow
1:54 AM 1.9 °F -12.9 °F -2.9 °F 80% 30.05 in 1.2 mi WNW 9.2 mph - 0.00 in Snow Light Snow
2:13 AM 1.4 °F -16.1 °F -2.2 °F 85% 30.00 in 2.0 mi NW 12.7 mph - 0.00 in Snow Light Snow
2:23 AM 3.2 °F -13.1 °F -2.2 °F 78% 30.00 in 4.0 mi WNW 11.5 mph - 0.00 in Snow Light Snow
2:51 AM 1.4 °F -13.5 °F -2.2 °F 85% 30.01 in 1.2 mi WNW 9.2 mph - 0.00 in Snow Light Snow
2:54 AM 1.9 °F -13.8 °F -2.0 °F 83% 30.07 in 1.2 mi WNW 10.4 mph - 0.00 in Snow Light Snow
3:07 AM 1.4 °F -16.1 °F -2.2 °F 85% 30.02 in 1.2 mi WNW 12.7 mph - 0.00 in Snow Light Snow
3:26 AM 1.4 °F -14.5 °F -2.2 °F 85% 30.02 in 2.0 mi WNW 10.4 mph - 0.00 in Snow Light Snow
3:50 AM 3.2 °F -10.3 °F -2.2 °F 78% 30.02 in 1.5 mi WNW 8.1 mph - 0.00 in Snow Light Snow
3:54 AM 3.0 °F -10.5 °F -2.0 °F 80% 30.08 in 1.5 mi WNW 8.1 mph - 0.00 in Snow Light Snow
4:11 AM 3.2 °F -13.9 °F -2.2 °F 78% 30.03 in 1.0 mi North 12.7 mph 18.4 mph 0.00 in Snow Light Snow
4:44 AM -0.4 °F -18.4 °F -5.8 °F 78% 30.04 in 1.2 mi North 12.7 mph - 0.00 in Snow Light Snow
4:54 AM -0.0 °F -16.3 °F -5.1 °F 79% 30.10 in 1.5 mi NNE 10.4 mph - 0.00 in Snow Light Snow
5:18 AM -0.4 °F -14.7 °F -5.8 °F 78% 30.05 in 2.0 mi NNE 8.1 mph - 0.00 in Snow Light Snow
5:50 AM -0.4 °F -14.7 °F -5.8 °F 78% 30.06 in 1.5 mi North 8.1 mph - 0.00 in Snow Light Snow
5:54 AM -0.0 °F -16.3 °F -5.1 °F 79% 30.12 in 1.2 mi North 10.4 mph - 0.00 in Snow Light Snow
6:35 AM -0.4 °F -14.7 °F -5.8 °F 78% 30.07 in 1.0 mi North 8.1 mph - 0.00 in Snow Light Snow
6:54 AM -0.0 °F -13.0 °F -5.1 °F 79% 30.14 in 1.8 mi North 6.9 mph - 0.00 in Snow Light Snow
7:29 AM -0.4 °F -10.4 °F -5.8 °F 78% 30.08 in 0.8 mi NNE 4.6 mph - 0.00 in Snow Light Snow
7:54 AM -0.9 °F - -6.0 °F 79% 30.15 in 1.0 mi Calm Calm - 0.01 in Snow Light Snow
8:08 AM -0.4 °F - -5.8 °F 78% 30.09 in 1.5 mi Calm Calm - 0.00 in Snow Light Snow
8:16 AM -0.4 °F - -5.8 °F 78% 30.09 in 3.0 mi Calm Calm - 0.00 in Snow Light Snow
8:49 AM -0.4 °F -8.3 °F -5.8 °F 78% 30.10 in 1.8 mi East 3.5 mph - 0.00 in Snow Light Snow
8:54 AM -0.9 °F - -5.1 °F 83% 30.17 in 1.8 mi Calm Calm - 0.00 in Snow Light Snow
9:02 AM -0.4 °F - -4.0 °F 85% 30.11 in 3.0 mi Calm Calm - 0.00 in Snow Light Snow
9:12 AM 1.4 °F -16.9 °F -4.0 °F 78% 30.11 in 1.8 mi NW 13.8 mph 18.4 mph 0.00 in Snow Light Snow
9:22 AM 1.4 °F -16.1 °F -4.0 °F 78% 30.11 in 3.0 mi WNW 12.7 mph - 0.00 in Snow Light Snow
9:35 AM 1.4 °F -12.5 °F -4.0 °F 78% 30.11 in 2.0 mi WNW 8.1 mph - 0.00 in Snow Light Snow
9:50 AM 1.4 °F -15.3 °F -4.0 °F 78% 30.12 in 1.0 mi WNW 11.5 mph 20.7 mph 0.00 in Snow Light Snow
9:54 AM 1.9 °F -14.7 °F -4.0 °F 76% 30.18 in 0.8 mi WNW 11.5 mph - 0.00 in Snow Light Snow
10:03 AM 1.4 °F -16.9 °F -2.2 °F 85% 30.12 in 1.5 mi WNW 13.8 mph 20.7 mph 0.00 in Snow Light Snow
10:13 AM 1.4 °F -15.3 °F -4.0 °F 78% 30.13 in 3.0 mi WNW 11.5 mph 19.6 mph 0.00 in Snow Light Snow
10:33 AM 1.4 °F -13.5 °F -4.0 °F 78% 30.13 in 1.8 mi NNE 9.2 mph 19.6 mph 0.00 in Snow Light Snow
10:54 AM -0.0 °F -17.1 °F -4.0 °F 83% 30.20 in 0.8 mi NNE 11.5 mph - 0.00 in Snow Light Snow
11:10 AM -0.4 °F -16.7 °F -5.8 °F 78% 30.14 in 1.8 mi NE 10.4 mph - 0.00 in Snow Light Snow
11:12 AM 1.4 °F -11.3 °F -4.0 °F 78% 30.14 in 2.5 mi North 6.9 mph - 0.00 in Snow Light Snow
11:31 AM 1.4 °F -14.5 °F -2.2 °F 85% 30.14 in 4.0 mi NNE 10.4 mph - 0.00 in Snow Light Snow
11:38 AM 1.4 °F -13.5 °F -4.0 °F 78% 30.14 in 4.0 mi NNE 9.2 mph - 0.00 in Snow Light Snow
11:54 AM -0.0 °F -17.1 °F -5.1 °F 79% 30.21 in 1.8 mi NNE 11.5 mph - 0.00 in Snow Light Snow
12:03 PM 1.4 °F -14.5 °F -4.0 °F 78% 30.15 in 1.5 mi NNE 10.4 mph - 0.00 in Snow Light Snow
12:13 PM 1.4 °F -9.9 °F -4.0 °F 78% 30.14 in 2.5 mi NNE 5.8 mph - 0.00 in Snow Light Snow
12:15 PM 1.4 °F -11.3 °F -4.0 °F 78% 30.14 in 4.0 mi NNE 6.9 mph - 0.00 in Snow Light Snow
12:25 PM -0.4 °F -14.7 °F -5.8 °F 78% 30.15 in 7.0 mi North 8.1 mph - 0.00 in   Overcast
12:54 PM -0.0 °F -7.9 °F -5.1 °F 79% 30.21 in 6.0 mi NNE 3.5 mph - 0.00 in   Haze
1:00 PM -0.4 °F -10.4 °F -5.8 °F 78% 30.15 in 2.5 mi NNE 4.6 mph - 0.00 in Snow Light Snow
1:08 PM 1.4 °F -8.3 °F -4.0 °F 78% 30.15 in 1.2 mi NNE 4.6 mph - 0.00 in Snow Light Snow
1:28 PM -0.4 °F -10.4 °F -5.8 °F 78% 30.15 in 2.0 mi NNE 4.6 mph - 0.00 in Snow Light Snow
1:35 PM 1.4 °F - -4.0 °F 78% 30.15 in 1.0 mi Calm Calm - 0.00 in Snow Light Snow
1:43 PM 1.4 °F - -2.2 °F 85% 30.15 in 0.8 mi Calm Calm - 0.00 in Snow Light Snow
1:54 PM 1.0 °F - -2.9 °F 83% 30.21 in 0.8 mi Calm Calm - 0.01 in Snow Light Snow
2:15 PM 1.4 °F -6.2 °F -2.2 °F 85% 30.14 in 1.5 mi NNE 3.5 mph - 0.00 in Snow Light Snow
2:37 PM 1.4 °F -6.2 °F -2.2 °F 85% 30.15 in 2.5 mi NNE 3.5 mph - 0.00 in Snow Light Snow
2:54 PM 1.0 °F - -2.0 °F 87% 30.21 in 3.0 mi Calm Calm - 0.00 in Snow Light Snow
2:59 PM 1.4 °F - -2.2 °F 85% 30.15 in 1.8 mi Calm Calm - 0.00 in Snow Light Snow
3:18 PM 1.4 °F - -2.2 °F 85% 30.15 in 2.5 mi Calm Calm - 0.00 in Snow Light Snow
3:33 PM 1.4 °F - -0.4 °F 92% 30.15 in 1.5 mi Calm Calm - 0.00 in Snow Light Snow
3:38 PM 1.4 °F - -2.2 °F 85% 30.15 in 2.0 mi Calm Calm - 0.00 in Snow Light Snow
3:46 PM 1.4 °F - -2.2 °F 85% 30.15 in 7.0 mi Calm Calm - 0.00 in   Overcast
3:54 PM 1.9 °F - -2.0 °F 83% 30.22 in 6.0 mi Calm Calm - 0.00 in   Overcast
4:08 PM 1.4 °F - -0.4 °F 92% 30.15 in 2.0 mi Calm Calm - 0.00 in Snow Light Snow
4:31 PM 1.4 °F - -0.4 °F 92% 30.15 in 5.0 mi Calm Calm - 0.00 in   Overcast
4:54 PM 1.0 °F - -2.9 °F 83% 30.22 in 4.0 mi Calm Calm - 0.00 in Snow Light Snow
5:54 PM 1.0 °F - -4.0 °F 79% 30.23 in 8.0 mi Calm Calm - 0.00 in Snow Light Snow
6:54 PM 1.9 °F - -2.9 °F 80% 30.24 in 8.0 mi Calm Calm - 0.00 in   Overcast
7:54 PM 3.0 °F -11.5 °F -4.0 °F 73% 30.23 in 10.0 mi WNW 9.2 mph - 0.00 in   Overcast
8:54 PM 5.0 °F -6.9 °F -4.0 °F 66% 30.22 in 9.0 mi West 6.9 mph - 0.00 in   Overcast
9:54 PM 6.1 °F -4.3 °F -2.0 °F 69% 30.22 in 10.0 mi West 5.8 mph - N/A   Overcast
10:54 PM 7.0 °F -1.7 °F -0.9 °F 70% 30.22 in 10.0 mi West 4.6 mph - N/A   Overcast
11:54 PM 7.0 °F - -0.9 °F 70% 30.21 in 10.0 mi Calm Calm - N/A   Overcast